"Pseudo-MPEC" for ZTF10Ep

Created 2026 Jul 20 14:35:18 UT using Find_Orb

Click here for an explanation of pseudo-MPECs

 
 Astrometry: 
     ZTF10Ep*0C2026 07 15.33845120 46 22.048-17 33 46.92   ~7FE5 17.00iUNEOCPI41
     ZTF10Ep 0C2026 07 15.33879920 46 25.959-17 33 54.08   ~7FE5 17.00iUNEOCPI41
     ZTF10Ep 0C2026 07 15.37705120 53 56.005-17 47 05.86   ~7FE5 17.13RUNEOCPI41
     ZTF10Ep 0C2026 07 15.37739920 54 00.139-17 47 12.06   ~7FE5 17.13RUNEOCPI41

Station data:
(I41) Palomar Mountain--ZTF  (N33.357336 W116.859780)  US/California.
   Observers B. T. Bolin, Z. T. F. Collaboration. Measurers B. T. Bolin,
   Z.-Y. Lin, F. J. Masci. 1.2-m f/2.4 Schmidt.

Orbital elements:  ZTF10Ep
   Perihelion 2026 Aug 29.413664 +/- 31.1 TT =  9:55:40.5 (JD 2461281.913664)
Epoch 2026 Jul 15.0 TT = JDT 2461236.5   Earth MOID: 0.0005   Ju: 0.4151
M 351.344367624 +/- 21              Ve: 0.0047   Ma: 0.0300      AutoNEOCP
n   0.190595332 +/- 0.24            Peri.  271.493544 +/- 43
a   2.990390304 +/- 2.51            Node   112.665573 +/- 30
e   0.81608325 +/- 0.252            Incl.    5.638862 +/- 2.0
P   5.17121                H 27.95  G  0.15   U 11.8  SR
q 0.549982847 +/- 0.155    Q 5.430797760 +/- 25.4         (J2000 ecliptic)
From 4 observations 2026 July 15 (56.1 min); mean residual 1".68
Residuals in arcseconds: 
260715 I41  1.6-  .15+    260715 I41  2.9+  .67-    
260715 I41  1.6+  .15-    260715 I41  2.9-  .66+    

Ephemerides (geocentric):
Date (UTC) HH   RA             Dec           delta  r     elong  mag " sig PA
---- --------  ------------   ------------  ------ ------ -----  --- --------
2026 07 20 15  07 32 11.675   +14 37 31.31  .06966 .94731   8.7 39??  51d 103
2026 07 20 16  07 32 14.352   +14 37 40.12  .07025 .94672   8.7 39??  51d 103
2026 07 20 17  07 32 16.985   +14 37 48.81  .07084 .94614   8.7 39??  51d 103
2026 07 20 18  07 32 19.577   +14 37 57.39  .07143 .94556   8.7 39??  51d 103
2026 07 20 19  07 32 22.129   +14 38 05.87  .07203 .94497   8.7 39??  51d 103
2026 07 20 20  07 32 24.641   +14 38 14.25  .07262 .94439   8.8 39??  51d 103
2026 07 20 21  07 32 27.115   +14 38 22.52  .07321 .94380   8.8 39??  51d 103
2026 07 20 22  07 32 29.551   +14 38 30.70  .07380 .94322   8.8 39??  51d 103
2026 07 20 23  07 32 31.950   +14 38 38.79  .07439 .94263   8.8 39??  51d 103
2026 07 21 00  07 32 34.314   +14 38 46.79  .07499 .94205   8.8 39??  51d 103
2026 07 21 01  07 32 36.643   +14 38 54.70  .07558 .94147   8.8 39??  51d 103
2026 07 21 02  07 32 38.938   +14 39 02.52  .07617 .94088   8.9 39??  51d 103
2026 07 21 03  07 32 41.200   +14 39 10.25  .07676 .94030   8.9 39??  51d 103
2026 07 21 04  07 32 43.429   +14 39 17.91  .07736 .93971   8.9 39??  51d 103
2026 07 21 05  07 32 45.627   +14 39 25.48  .07795 .93913   8.9 39??  51d 103
2026 07 21 06  07 32 47.793   +14 39 32.98  .07854 .93855   8.9 39??  51d 103
2026 07 21 07  07 32 49.930   +14 39 40.40  .07914 .93796   8.9 39??  51d 103
2026 07 21 08  07 32 52.037   +14 39 47.75  .07973 .93738   9.0 39??  51d 103
2026 07 21 09  07 32 54.116   +14 39 55.03  .08032 .93679   9.0 39??  51d 103
2026 07 21 10  07 32 56.166   +14 40 02.24  .08091 .93621   9.0 39??  51d 103
2026 07 21 11  07 32 58.189   +14 40 09.37  .08151 .93563   9.0 39??  51d 103
2026 07 21 12  07 33 00.186   +14 40 16.45  .08210 .93504   9.0 39??  51d 103
2026 07 21 13  07 33 02.156   +14 40 23.45  .08269 .93446   9.0 39??  51d 103
2026 07 21 14  07 33 04.100   +14 40 30.40  .08329 .93387   9.1 39??  51d 103
2026 07 21 15  07 33 06.019   +14 40 37.28  .08388 .93329   9.1 39??  51d 103
2026 07 21 16  07 33 07.914   +14 40 44.10  .08448 .93271   9.1 39??  51d 103
2026 07 21 17  07 33 09.785   +14 40 50.87  .08507 .93212   9.1 39??  51d 103
2026 07 21 18  07 33 11.633   +14 40 57.58  .08566 .93154   9.1 39??  51d 103
2026 07 21 19  07 33 13.457   +14 41 04.23  .08626 .93096   9.2 39??  51d 103
2026 07 21 20  07 33 15.260   +14 41 10.83  .08685 .93037   9.2 39??  51d 103
2026 07 21 21  07 33 17.040   +14 41 17.37  .08745 .92979   9.2 39??  51d 103
2026 07 21 22  07 33 18.799   +14 41 23.87  .08804 .92921   9.2 39??  51d 103
2026 07 21 23  07 33 20.537   +14 41 30.31  .08863 .92862   9.2 39??  51d 103
2026 07 22 00  07 33 22.255   +14 41 36.71  .08923 .92804   9.3 39??  51d 103
2026 07 22 01  07 33 23.953   +14 41 43.05  .08982 .92746   9.3 39??  51d 103
2026 07 22 02  07 33 25.631   +14 41 49.35  .09042 .92687   9.3 39??  51d 103
2026 07 22 03  07 33 27.289   +14 41 55.61  .09101 .92629   9.3 39??  51d 103
2026 07 22 04  07 33 28.929   +14 42 01.82  .09161 .92571   9.3 39??  51d 103
2026 07 22 05  07 33 30.551   +14 42 07.99  .09220 .92512   9.4 39??  51d 103
2026 07 22 06  07 33 32.155   +14 42 14.11  .09280 .92454   9.4 39??  51d 103
2026 07 22 07  07 33 33.741   +14 42 20.20  .09339 .92396   9.4 39??  51d 103
2026 07 22 08  07 33 35.310   +14 42 26.24  .09399 .92337   9.4 39??  51d 103
2026 07 22 09  07 33 36.861   +14 42 32.25  .09458 .92279   9.4 39??  51d 103
2026 07 22 10  07 33 38.397   +14 42 38.21  .09518 .92221   9.5 39??  51d 103
2026 07 22 11  07 33 39.916   +14 42 44.14  .09578 .92163   9.5 39??  51d 103
2026 07 22 12  07 33 41.419   +14 42 50.04  .09637 .92104   9.5 39??  51d 103
2026 07 22 13  07 33 42.907   +14 42 55.89  .09697 .92046   9.5 39??  51d 103
2026 07 22 14  07 33 44.380   +14 43 01.72  .09756 .91988   9.5 39??  51d 103